Location: Napa Junction
(38.1874°N, 122.2508°W)
Time: 22:30:59
(UTC+00:00)

COSMOS 2455 - Pass Details

Date: 06 December 2024
Orbit: 901 x 907 km, 67.1° (Epoch: 19 January)

Event Time Altitude Azimuth Distance (km) Brightness Sun altitude
Rises 02:34:39 0° 313° (NW) 3,538 6.4 -20.2°
Reaches altitude 10° 02:38:07 10° 294° (WNW) 2,591 6.0 -20.9°
Maximum altitude 02:41:40 16° 257° (WSW) 2,160 5.8 -21.6°
Drops below altitude 10° 02:45:13 10° 220° (SW) 2,579 5.9 -22.3°
Sets 02:48:40 0° 200° (SSW) 3,514 6.3 -22.9°
